Wind_Speed
22 14 16 21 17 14 21 29 32 19 6 8 13 2 15 19 21 22 19 19 18 19 17 19 17 16 16 17 14 15 13 13 16 12 11 9 7 4 6 4 9 6 1 6
18 19 21 22 8 15 7 14 11 8 4 6 14 16 29 29 20 20 19 21 19 20 22 19 17 16 18 14 14 18 17 16 17 12 10 7 5 5 5 2 8 7 6 7
21 21 20 19 20 8 11 15 6 9 17 8 8 5 11 14 17 17 17 20 21 19 24 21 16 17 17 15 13 18 20 21 12 11 11 9 4 3 3 5 4 6 4 3
21 23 23 15 20 10 12 12 9 16 10 13 10 11 7 6 3 4 16 19 23 21 25 24 19 19 16 17 18 27 24 18 12 15 10 5 5 1 2 7 3 2 4 5
22 24 22 21 21 16 16 19 5 10 14 17 22 4 4 15 5 17 20 22 21 26 30 25 21 20 14 6 7 18 21 16 15 15 3 9 9 5 3 8 3 7 2 3
20 26 23 21 20 14 13 19 17 13 11 13 8 11 4 6 9 17 39 41 24 27 29 26 22 20 12 9 11 17 16 16 16 14 9 11 8 6 5 7 9 6 2 6
20 23 23 17 24 16 18 17 12 12 12 7 6 3 7 9 23 26 32 29 22 28 35 27 23 18 15 14 12 12 16 20 19 14 15 13 8 10 8 8 8 6 8 6
19 18 22 12 16 16 21 20 14 16 14 4 4 5 5 13 44 40 14 22 25 34 34 26 21 17 16 12 15 14 15 17 15 12 11 8 8 4 6 8 2 4 2 8
19 22 18 25 19 20 21 18 21 18 19 16 12 3 13 11 16 5 10 22 24 36 30 26 20 18 17 15 14 12 12 12 9 8 6 4 8 8 6 6 6 5 8 7
24 20 21 21 21 19 19 20 16 12 17 18 15 11 6 20 10 6 4 16 20 30 30 25 21 22 20 14 13 12 12 10 9 10 8 6 7 6 4 4 6 7 8 8
22 22 20 16 17 16 14 17 18 17 12 12 14 4 19 25 20 11 4 14 20 23 25 24 24 21 17 21 16 15 13 15 11 12 11 10 6 4 3 2 4 4 7 7
19 14 17 22 14 18 16 18 19 13 14 15 15 2 17 23 9 2 5 17 21 24 26 25 23 20 22 21 16 13 14 13 13 11 9 7 6 4 2 1 5 4 5 5
8 14 16 22 19 13 13 15 21 20 16 17 15 3 13 18 17 6 16 23 24 26 28 28 24 23 21 19 16 18 18 16 11 9 7 6 5 2 0 2 1 4 4 5
10 16 16 16 16 15 21 18 21 20 14 15 17 9 13 26 27 33 31 27 26 28 29 28 25 25 23 20 19 19 17 13 12 13 12 9 6 7 4 1 2 3 4 5
12 18 17 18 20 21 19 18 19 19 23 18 18 6 17 19 19 30 29 26 28 28 28 28 27 26 25 23 22 20 17 16 16 15 9 8 6 6 5 4 4 4 5 8
13 15 15 18 19 20 20 17 15 21 20 20 23 21 17 21 31 26 33 32 30 30 28 28 29 25 26 24 24 22 20 16 11 11 9 6 6 6 6 6 5 6 7 8
15 13 13 16 16 19 20 19 17 15 16 16 18 19 15 6 19 29 32 31 31 32 32 30 27 27 25 24 25 23 20 17 14 12 9 7 9 7 6 7 7 7 7 7
10 10 8 12 14 17 16 16 19 20 20 17 18 17 14 16 26 30 35 31 31 30 31 31 29 26 24 23 21 21 18 15 14 11 10 9 9 7 8 8 7 6 5 5
17 15 12 10 12 15 17 19 19 18 16 15 19 18 15 18 38 33 24 26 31 31 31 29 29 26 25 24 23 22 19 16 13 13 11 11 10 9 9 7 6 4 5 4
21 19 12 11 15 16 14 18 14 15 12 9 14 16 16 15 10 17 35 30 32 31 31 30 30 28 28 28 23 21 18 16 14 13 13 13 12 10 9 6 5 3 2 1
16 15 13 14 12 14 16 18 18 14 8 17 19 22 21 13 12 27 34 32 31 31 30 31 31 30 29 25 22 20 18 16 14 14 13 14 13 12 9 7 5 2 1 2
12 3 11 14 13 13 14 13 10 10 26 20 20 4 12 14 9 41 38 24 32 35 32 33 29 28 25 24 23 20 18 17 16 14 13 15 12 9 6 5 4 5 3 1
1 10 6 1 5 22 20 17 30 17 9 28 19 14 11 30 52 13 35 39 36 35 35 31 29 27 24 23 21 20 21 17 16 15 13 13 13 7 8 7 6 5 1 2
7 16 3 5 12 13 24 13 15 21 14 15 35 10 13 30 49 40 34 38 36 36 33 31 29 27 24 21 20 21 17 17 17 16 13 11 11 11 9 9 3 1 3 2
9 9 8 12 13 13 27 42 7 9 20 19 26 13 17 36 32 37 34 33 35 34 31 30 29 28 24 21 19 17 16 18 18 15 13 10 8 9 8 9 8 6 3 6
11 7 13 6 2 5 12 43 17 6 11 14 17 13 6 25 32 34 32 28 31 30 31 32 27 27 23 21 20 16 16 19 17 14 13 11 13 9 11 9 7 6 5 4
Wind_Direction
225 236 238 251 265 142 190 178 207 233 147 229 273 265 120 186 190 176 183 175 186 186 188 179 193 178 174 175 179 200 197 189 188 203 198 212 218 210 265 282 311 327 273 294
231 225 243 255 221 269 279 267 246 23 140 233 106 198 106 248 201 187 183 174 190 188 173 174 189 184 178 163 195 207 207 218 211 201 212 218 188 202 242 215 278 316 339 345
227 236 224 261 273 225 257 271 117 161 264 276 290 188 180 171 194 193 194 192 191 189 172 176 181 182 156 145 270 213 213 220 217 194 211 223 234 237 299 231 223 307 358 27
240 239 258 217 261 268 241 275 321 315 289 285 211 286 165 294 170 291 210 202 195 189 178 171 174 139 155 162 171 206 205 220 204 188 211 195 182 319 294 274 250 356 10 18
235 242 245 256 236 225 261 283 197 281 293 286 284 191 255 271 357 333 279 220 206 178 167 171 175 173 166 206 196 174 195 206 201 194 175 230 197 173 215 286 309 324 324 9
246 249 241 249 257 259 260 268 276 279 271 271 3 15 131 172 210 194 250 261 197 171 170 172 175 177 157 168 169 175 199 201 189 188 193 196 270 251 218 240 293 267 247 238
243 246 258 238 243 226 246 251 261 248 252 261 75 97 164 110 279 231 219 217 186 163 161 161 167 165 155 156 164 170 202 190 193 204 201 229 264 239 226 242 254 248 231 258
231 228 240 222 255 253 228 249 254 255 260 176 312 236 166 104 263 217 170 161 171 147 150 162 158 164 166 167 166 181 203 182 202 202 229 219 231 205 222 221 197 211 177 272
240 234 231 223 218 234 253 250 244 274 279 278 242 182 136 165 358 238 152 150 161 151 155 158 161 165 165 165 167 185 191 178 173 172 158 185 195 206 229 200 174 220 249 267
247 259 244 216 212 215 237 259 251 230 254 272 273 205 118 81 283 2 296 151 153 147 152 156 162 159 166 161 174 182 169 151 155 144 158 157 154 164 194 221 237 270 289 304
232 254 264 271 198 213 220 241 259 278 280 276 263 140 151 153 178 172 264 160 159 152 152 156 157 156 173 174 182 186 162 163 146 145 153 133 135 145 162 296 310 322 325 344
218 249 252 259 238 206 232 254 236 248 258 266 281 221 171 162 133 213 151 173 163 159 157 161 156 158 165 164 159 153 148 139 147 163 154 159 173 172 244 224 332 328 346 24
227 236 250 254 236 201 242 229 259 246 242 257 276 127 174 125 110 292 240 178 161 155 155 155 156 159 163 151 167 154 145 152 157 142 138 128 114 110 78 88 259 342 54 52
300 276 238 245 244 245 209 225 242 251 256 244 251 168 153 167 166 197 211 175 165 160 155 153 154 155 155 166 164 152 158 157 147 163 175 170 169 156 165 224 114 68 78 69
258 256 265 264 258 269 273 231 212 239 267 277 284 271 198 184 185 166 156 164 166 161 158 157 160 153 156 167 159 159 157 158 179 184 178 181 190 196 186 147 118 104 84 76
240 249 264 273 266 267 271 270 261 222 225 255 272 276 298 119 140 155 161 168 171 161 163 164 156 157 164 163 161 161 161 175 167 159 182 187 170 146 139 137 123 97 76 74
217 230 235 252 255 252 261 257 261 260 269 236 239 258 270 176 159 161 162 168 172 167 165 163 166 163 166 163 164 165 168 168 171 177 181 170 150 156 149 131 122 105 84 72
284 287 269 243 253 254 261 262 249 246 253 255 266 263 245 256 179 158 160 169 169 170 164 160 163 165 165 165 163 163 162 171 170 170 173 162 157 164 146 140 129 108 99 80
266 265 255 258 256 254 261 253 253 248 242 239 259 264 253 247 105 112 224 179 167 165 160 159 165 165 165 163 166 165 167 168 166 170 175 164 167 169 153 149 138 119 68 39
242 249 241 241 270 259 257 245 257 262 259 275 236 247 246 206 174 154 170 171 165 165 159 165 165 162 160 164 167 172 168 166 169 176 174 169 172 171 156 165 132 131 143 300
230 237 241 231 247 266 284 297 333 255 245 237 253 248 241 185 199 174 157 160 158 158 162 165 162 160 161 161 163 168 172 170 179 179 175 168 174 163 171 157 164 168 196 214
276 314 236 228 233 231 4 323 358 2 3 20 8 62 3 68 315 143 140 151 158 157 163 154 153 160 162 165 171 172 171 180 183 181 171 167 165 150 154 149 156 143 152 137
150 259 224 264 304 306 309 27 15 28 13 339 338 28 109 86 78 7 149 154 155 158 152 154 158 159 163 169 176 172 182 184 175 166 168 163 141 149 215 183 200 181 126 8
67 13 353 248 257 293 328 354 22 354 342 318 322 322 191 139 146 171 154 150 154 152 153 158 162 159 163 174 179 191 192 177 167 164 164 169 171 188 201 165 133 311 222 287
353 144 307 266 264 340 313 297 43 341 328 308 303 293 205 166 152 143 149 152 152 150 155 162 163 158 167 172 177 195 184 170 166 169 167 177 172 197 204 202 204 212 240 15
271 172 198 297 278 158 2 319 303 273 286 288 286 282 181 141 137 141 144 148 147 155 160 159 162 167 171 170 182 183 178 165 167 171 177 185 185 193 197 202 223 213 255 327
Height
1463 1466 1466 1449 1439 1449 1457 1491 1482 1455 1443 1450 1448 1449 1472 1476 1477 1476 1480 1488 1493 1495 1499 1501 1507 1513 1517 1521 1525 1526 1531 1534 1533 1533 1534 1534 1536 1534 1533 1535 1537 1538 1537 1537
1461 1463 1450 1442 1441 1444 1446 1450 1448 1443 1440 1445 1455 1469 1476 1493 1475 1473 1476 1480 1488 1490 1495 1500 1507 1512 1518 1525 1528 1528 1530 1530 1535 1535 1535 1533 1530 1530 1532 1535 1537 1538 1536 1535
1459 1450 1444 1442 1439 1443 1447 1449 1451 1463 1446 1436 1442 1457 1469 1466 1469 1468 1471 1477 1483 1487 1490 1498 1505 1511 1512 1522 1524 1527 1525 1527 1531 1533 1531 1530 1528 1529 1531 1533 1536 1536 1536 1535
1449 1444 1440 1442 1444 1439 1455 1435 1438 1444 1450 1462 1438 1469 1464 1467 1467 1466 1468 1472 1476 1483 1488 1496 1503 1507 1512 1518 1518 1516 1525 1524 1527 1527 1526 1528 1528 1528 1532 1535 1536 1535 1535 1534
1451 1445 1442 1442 1437 1433 1447 1432 1440 1445 1451 1450 1443 1465 1506 1483 1487 1477 1463 1466 1470 1477 1483 1492 1498 1504 1506 1511 1513 1512 1520 1523 1526 1530 1525 1529 1528 1529 1531 1538 1534 1534 1535 1533
1442 1437 1436 1434 1432 1434 1435 1439 1438 1441 1447 1470 1454 1459 1504 1493 1488 1478 1465 1468 1465 1472 1481 1487 1494 1499 1505 1509 1513 1515 1518 1520 1523 1524 1524 1528 1527 1528 1532 1532 1537 1534 1533 1531
1443 1439 1430 1430 1438 1431 1438 1448 1470 1476 1472 1473 1454 1468 1484 1480 1502 1483 1461 1456 1461 1469 1476 1484 1490 1496 1502 1506 1510 1513 1515 1517 1519 1520 1523 1523 1524 1526 1531 1532 1533 1533 1532 1529
1455 1458 1435 1429 1434 1441 1441 1444 1462 1486 1478 1470 1466 1468 1464 1469 1460 1454 1445 1448 1456 1467 1476 1483 1489 1495 1500 1505 1509 1511 1513 1515 1517 1518 1519 1521 1523 1525 1528 1529 1531 1530 1531 1526
1446 1443 1421 1425 1429 1435 1441 1444 1430 1446 1441 1452 1441 1449 1454 1461 1459 1452 1448 1448 1453 1462 1474 1482 1488 1493 1499 1503 1508 1511 1512 1513 1515 1516 1517 1519 1522 1525 1527 1528 1529 1527 1526 1524
1429 1445 1416 1413 1421 1425 1434 1427 1446 1442 1475 1478 1448 1444 1464 1469 1488 1451 1456 1452 1455 1463 1471 1482 1488 1492 1496 1502 1506 1509 1511 1514 1515 1516 1518 1520 1523 1525 1526 1526 1526 1525 1524 1523
1425 1429 1427 1411 1418 1431 1434 1438 1432 1429 1434 1457 1457 1457 1435 1449 1453 1445 1454 1454 1457 1463 1471 1481 1488 1493 1496 1501 1504 1508 1510 1513 1515 1518 1519 1521 1523 1524 1524 1524 1524 1523 1523 1520
1417 1426 1438 1425 1407 1411 1421 1428 1429 1447 1455 1439 1435 1438 1430 1436 1446 1448 1450 1457 1460 1464 1470 1481 1487 1494 1494 1500 1503 1507 1510 1513 1517 1518 1519 1520 1521 1522 1523 1523 1523 1521 1520 1520
1421 1433 1446 1435 1417 1409 1421 1422 1421 1418 1423 1440 1445 1460 1432 1446 1457 1463 1457 1457 1460 1464 1469 1479 1486 1492 1495 1499 1503 1508 1511 1514 1516 1518 1520 1521 1522 1522 1522 1522 1521 1520 1519 1518
1428 1428 1429 1440 1426 1411 1421 1420 1418 1419 1429 1432 1428 1430 1427 1436 1440 1447 1450 1459 1462 1463 1469 1476 1484 1489 1494 1498 1504 1508 1511 1514 1516 1518 1519 1519 1520 1520 1521 1520 1520 1519 1518 1518
1427 1435 1423 1417 1412 1408 1408 1408 1413 1425 1419 1428 1416 1419 1416 1417 1423 1434 1442 1455 1460 1464 1470 1476 1482 1487 1494 1497 1503 1507 1511 1514 1513 1515 1516 1517 1517 1518 1519 1519 1520 1519 1519 1519
1424 1434 1427 1429 1413 1410 1413 1404 1404 1407 1413 1417 1415 1413 1400 1400 1421 1429 1434 1446 1454 1461 1469 1475 1480 1485 1492 1497 1501 1505 1509 1510 1513 1515 1515 1516 1517 1518 1518 1519 1519 1520 1520 1519
1421 1424 1431 1439 1418 1418 1426 1410 1407 1406 1403 1406 1421 1409 1402 1408 1412 1420 1434 1442 1452 1456 1462 1471 1479 1485 1491 1496 1500 1503 1505 1508 1511 1513 1514 1515 1516 1517 1518 1519 1520 1520 1521 1520
1418 1421 1420 1432 1425 1449 1410 1398 1398 1403 1401 1399 1399 1397 1400 1402 1408 1422 1426 1438 1448 1456 1460 1467 1476 1484 1490 1495 1499 1503 1505 1507 1509 1511 1513 1514 1516 1516 1518 1519 1520 1520 1520 1521
1417 1418 1427 1434 1433 1419 1409 1400 1397 1398 1400 1394 1397 1395 1396 1401 1409 1417 1442 1441 1443 1454 1460 1466 1475 1482 1489 1494 1498 1502 1504 1505 1508 1510 1511 1513 1515 1516 1518 1520 1520 1521 1522 1523
1413 1410 1420 1426 1437 1439 1402 1388 1385 1386 1407 1387 1389 1392 1393 1395 1406 1417 1431 1434 1444 1452 1454 1465 1474 1480 1485 1491 1496 1501 1503 1505 1506 1508 1510 1513 1515 1516 1518 1519 1521 1522 1524 1525
1414 1414 1420 1421 1428 1414 1394 1386 1386 1407 1404 1385 1388 1388 1390 1393 1396 1403 1422 1434 1441 1449 1460 1464 1472 1477 1482 1488 1494 1499 1501 1503 1505 1507 1509 1512 1514 1516 1518 1520 1521 1522 1523 1523
1425 1428 1416 1412 1422 1432 1400 1391 1406 1403 1392 1387 1389 1387 1388 1396 1398 1404 1418 1438 1441 1446 1459 1464 1472 1479 1484 1488 1493 1497 1500 1501 1503 1506 1508 1511 1514 1517 1517 1519 1520 1521 1521 1521
1425 1423 1425 1436 1432 1412 1407 1407 1410 1403 1400 1398 1395 1391 1394 1399 1401 1425 1418 1429 1442 1454 1454 1463 1473 1480 1485 1489 1494 1496 1498 1499 1502 1505 1509 1511 1513 1517 1518 1519 1520 1520 1520 1520
1417 1431 1430 1429 1412 1414 1410 1409 1410 1409 1405 1400 1396 1396 1391 1395 1400 1428 1431 1435 1445 1451 1454 1463 1473 1478 1485 1490 1495 1495 1497 1499 1502 1505 1509 1512 1513 1516 1517 1518 1519 1519 1522 1521
1421 1438 1439 1432 1418 1412 1406 1420 1413 1414 1409 1405 1402 1397 1386 1382 1403 1413 1429 1440 1443 1447 1457 1467 1474 1473 1483 1488 1493 1495 1497 1500 1503 1505 1508 1510 1513 1515 1516 1517 1520 1520 1520 1520
1417 1430 1434 1437 1419 1421 1432 1431 1415 1412 1410 1408 1404 1399 1397 1396 1400 1413 1429 1440 1446 1454 1461 1465 1473 1473 1482 1488 1490 1493 1496 1500 1503 1506 1508 1510 1513 1514 1515 1516 1517 1517 1517 1517